DL3APY-3 Weather Reports


time (UTC)temp
F
wind
direction
speed
knots
gust
knots
rain 1hr
in
rain 24hr
in
rain mn
in
humidity
%
barometer
mb
20260508102813 51 90 0.9 0.0 0.00 0.00 0.00 10 1028.0
20260508102704 51 315 1.7 0.0 0.00 0.00 0.00 10 1027.9
20260508102444 51 90 0.9 0.0 0.00 0.00 0.00 10 1027.9
20260508102330 51 90 0.9 0.0 0.00 0.00 0.00 10 1303.4
20260508102205 52 90 1.7 0.0 0.00 0.00 0.00 10 1027.9
20260508101831 51 45 1.7 0.0 0.00 0.00 0.00 10 1027.8
20260508101722 51 0 0.9 0.0 0.00 0.00 0.00 10 1027.8
20260508101614 51 45 1.7 0.0 0.00 0.00 0.00 10 1027.8
20260508101356 51 0 1.7 0.0 0.00 0.00 0.00 10 1027.8
20260508101248 51 45 0.9 0.0 0.00 0.00 0.00 10 1027.9
20260508101139 51 45 1.7 0.0 0.00 0.00 0.00 10 1027.9
20260508101030 51 45 1.7 0.0 0.00 0.00 0.00 10 1027.9
20260508100921 51 45 1.7 0.0 0.00 0.00 0.00 10 1027.9
20260508100813 51 45 0.9 0.0 0.00 0.00 0.00 10 1027.9
20260508100555 51 90 1.7 0.0 0.00 0.00 0.00 10 1027.9
20260508100447 50 45 1.7 0.0 0.00 0.00 0.00 10 1028.0
20260508100338 50 45 0.9 0.0 0.00 0.00 0.00 10 1028.0
20260508100229 50 45 0.9 0.0 0.00 0.00 0.00 10 1028.0
20260508100120 50 0 1.7 0.0 0.00 0.00 0.00 10 1028.0
20260508100012 51 0 1.7 0.0 0.00 0.00 0.00 10 1028.0
20260508095903 51 90 0.9 0.0 0.00 0.00 0.00 10 1028.0
20260508095754 51 45 0.9 0.0 0.00 0.00 0.00 10 1028.0
20260508095645 51 90 0.9 0.0 0.00 0.00 0.00 10 1028.0
20260508095537 50 45 2.6 0.0 0.00 0.00 0.00 10 1028.0
20260508095102 50 45 1.7 0.0 0.00 0.00 0.00 10 1028.1
20260508094953 50 45 1.7 0.0 0.00 0.00 0.00 10 1028.2
20260508094844 50 45 1.7 0.0 0.00 0.00 0.00 10 1028.2
20260508094736 51 45 0.9 0.0 0.00 0.00 0.00 10 1028.2
20260508094627 51 0 1.7 0.0 0.00 0.00 0.00 10 1028.2
20260508094301 51 135 0.9 0.0 0.00 0.00 0.00 10 1028.2
20260508093935 51 0 0.9 0.0 0.00 0.00 0.00 10 1028.2
20260508093826 51 45 2.6 0.0 0.00 0.00 0.00 10 1028.2
20260508093717 51 90 1.7 0.0 0.00 0.00 0.00 10 1028.2
20260508093500 51 90 0.9 0.0 0.00 0.00 0.00 10 1028.2
20260508093351 52 45 0.9 0.0 0.00 0.00 0.00 10 1028.2
20260508093242 52 90 0.9 0.0 0.00 0.00 0.00 10 1028.1
20260508093134 51 135 0.9 0.0 0.00 0.00 0.00 10 1028.1
20260508093025 51 90 1.7 0.0 0.00 0.00 0.00 10 1028.2
20260508092807 51 90 1.7 0.0 0.00 0.00 0.00 10 1028.2
20260508092441 52 45 0.9 0.0 0.00 0.00 0.00 10 1028.0
20260508092333 51 90 1.7 0.0 0.00 0.00 0.00 10 1028.1
20260508092224 51 45 0.9 0.0 0.00 0.00 0.00 10 1028.1
20260508092115 51 315 1.7 0.0 0.00 0.00 0.00 10 1028.0
20260508091858 52 45 0.9 0.0 0.00 0.00 0.00 10 1027.9
20260508091640 51 45 0.9 0.0 0.00 0.00 0.00 10 1027.9
20260508091532 50 45 2.6 0.0 0.00 0.00 0.00 10 1027.9
20260508091423 50 90 1.7 0.0 0.00 0.00 0.00 10 1027.9
20260508091206 52 270 0.9 0.0 0.00 0.00 0.00 10 1027.8
20260508090948 51 45 0.9 0.0 0.00 0.00 0.00 10 1027.8
20260508090622 53 45 0.9 0.0 0.00 0.00 0.00 10 1027.5
20260508090405 53 90 0.9 0.0 0.00 0.00 0.00 10 1027.3
20260508090256 52 45 0.9 0.0 0.00 0.00 0.00 10 1027.3
20260508090147 53 0 0.9 0.0 0.00 0.00 0.00 10 1027.2
20260508090038 52 45 0.9 0.0 0.00 0.00 0.00 10 1027.1
20260508085930 53 90 0.9 0.0 0.00 0.00 0.00 10 1027.0
20260508085821 52 90 0.9 0.0 0.00 0.00 0.00 10 1027.1
20260508085712 52 90 2.6 0.0 0.00 0.00 0.00 10 1027.1
20260508085454 52 90 0.9 0.0 0.00 0.00 0.00 10 1026.8
20260508085237 53 45 1.7 0.0 0.00 0.00 0.00 10 1026.5
20260508085128 53 90 0.9 0.0 0.00 0.00 0.00 10 1026.4
20260508085019 55 0 0.9 0.0 0.00 0.00 0.00 10 1026.3
20260508084911 54 45 1.7 0.0 0.00 0.00 0.00 10 1026.1
20260508084544 52 45 1.7 0.0 0.00 0.00 0.00 10 1026.1
20260508084435 52 45 1.7 0.0 0.00 0.00 0.00 10 1026.0
20260508084327 52 45 1.7 0.0 0.00 0.00 0.00 10 1026.0
20260508084218 52 45 1.7 0.0 0.00 0.00 0.00 10 1025.9
20260508083852 50 45 0.9 0.0 0.00 0.00 0.00 10 1025.8
20260508083743 50 45 0.9 0.0 0.00 0.00 0.00 10 1025.8
20260508083634 50 90 0.9 0.0 0.00 0.00 0.00 10 1025.7
20260508083526 50 45 0.9 0.0 0.00 0.00 0.00 10 1025.6
20260508082834 49 90 0.9 0.0 0.00 0.00 0.00 10 1025.5
20260508082725 48 135 1.7 0.0 0.00 0.00 0.00 10 1025.5
20260508082616 48 90 0.9 0.0 0.00 0.00 0.00 10 1025.5
20260508082507 48 90 0.9 0.0 0.00 0.00 0.00 10 1025.5
20260508082359 48 135 0.9 0.0 0.00 0.00 0.00 10 1025.5
20260508082250 48 90 0.9 0.0 0.00 0.00 0.00 10 1025.4
20260508082141 48 90 0.9 0.0 0.00 0.00 0.00 10 1025.4
20260508081558 47 45 0.9 0.0 0.00 0.00 0.00 10 1025.4
20260508081449 47 0 0.9 0.0 0.00 0.00 0.00 10 1025.4
20260508081123 47 0 0.9 0.0 0.00 0.00 0.00 10 1025.4
20260508081014 47 315 0.9 0.0 0.00 0.00 0.00 10 1025.3
20260508080430 47 90 0.9 0.0 0.00 0.00 0.00 10 1025.3
20260508080213 47 45 0.9 0.0 0.00 0.00 0.00 10 1025.2
20260508075738 47 90 0.9 0.0 0.00 0.00 0.00 10 1025.2
20260508075629 47 45 0.9 0.0 0.00 0.00 0.00 10 1025.1
20260508075520 47 45 0.9 0.0 0.00 0.00 0.00 10 1025.1
20260508074937 47 90 0.9 0.0 0.00 0.00 0.00 10 1025.0
20260508074828 47 45 0.9 0.0 0.00 0.00 0.00 10 1025.0
20260508074244 47 315 0.9 0.0 0.00 0.00 0.00 10 1024.9
20260508074136 47 135 0.9 0.0 0.00 0.00 0.00 10 1024.9
20260508074027 47 90 0.9 0.0 0.00 0.00 0.00 10 1024.9
20260508073552 47 90 0.9 0.0 0.00 0.00 0.00 10 1024.8
20260508073443 46 90 0.9 0.0 0.00 0.00 0.00 10 1024.8
20260508073335 46 135 0.9 0.0 0.00 0.00 0.00 10 1024.8
20260508073226 46 90 0.9 0.0 0.00 0.00 0.00 10 1024.8
20260508073008 46 45 0.9 0.0 0.00 0.00 0.00 10 1024.7
20260508072900 46 45 0.9 0.0 0.00 0.00 0.00 10 1024.7
20260508072751 46 45 0.9 0.0 0.00 0.00 0.00 10 1024.7
20260508072642 46 180 0.9 0.0 0.00 0.00 0.00 10 1024.7
20260508072534 46 90 1.7 0.0 0.00 0.00 0.00 10 1024.7
20260508072425 46 45 0.9 0.0 0.00 0.00 0.00 10 1024.6
20260508071950 46 45 0.9 0.0 0.00 0.00 0.00 10 1024.5
20260508071841 46 45 0.9 0.0 0.00 0.00 0.00 10 1024.5
20260508071733 46 90 0.9 0.0 0.00 0.00 0.00 10 1024.5
20260508071515 46 0 0.9 0.0 0.00 0.00 0.00 10 1024.4
20260508071258 46 45 0.9 0.0 0.00 0.00 0.00 10 1024.4
20260508070932 46 0 0.9 0.0 0.00 0.00 0.00 10 1024.4
20260508070823 46 45 0.9 0.0 0.00 0.00 0.00 10 1024.5
20260508070131 45 0 0.9 0.0 0.00 0.00 0.00 10 1024.5
20260508070022 45 45 0.9 0.0 0.00 0.00 0.00 10 1024.4
20260508065804 45 45 0.9 0.0 0.00 0.00 0.00 10 1024.4
20260508065656 45 0 1.7 0.0 0.00 0.00 0.00 10 1024.4
20260508065547 45 45 0.9 0.0 0.00 0.00 0.00 10 1024.5
20260508065330 46 315 0.9 0.0 0.00 0.00 0.00 10 1024.4
20260508065221 46 45 0.9 0.0 0.00 0.00 0.00 10 1024.4
20260508065003 46 90 0.9 0.0 0.00 0.00 0.00 10 1024.4
20260508064855 46 45 0.9 0.0 0.00 0.00 0.00 10 1024.4
20260508064637 46 45 0.9 0.0 0.00 0.00 0.00 10 1024.4
20260508063945 46 135 0.9 0.0 0.00 0.00 0.00 10 1024.3
20260508063836 46 90 0.9 0.0 0.00 0.00 0.00 10 1024.3
20260508063510 46 0 0.9 0.0 0.00 0.00 0.00 10 1024.2
20260508063401 46 45 0.9 0.0 0.00 0.00 0.00 10 1024.2
20260508063253 46 0 0.9 0.0 0.00 0.00 0.00 10 1024.2
20260508063144 46 90 0.9 0.0 0.00 0.00 0.00 10 1024.2
20260508063035 46 90 0.9 0.0 0.00 0.00 0.00 10 1024.2
20260508062600 46 90 0.9 0.0 0.00 0.00 0.00 10 1024.1
20260508062452 46 90 0.9 0.0 0.00 0.00 0.00 10 1024.1
20260508062234 46 45 0.9 0.0 0.00 0.00 0.00 10 1024.1
20260508062125 46 90 0.9 0.0 0.00 0.00 0.00 10 1024.1
20260508061908 46 45 0.9 0.0 0.00 0.00 0.00 10 1024.0
20260508061542 46 0 0.9 0.0 0.00 0.00 0.00 10 1024.0
20260508060958 46 0 0.9 0.0 0.00 0.00 0.00 10 1024.0
20260508060741 46 0 0.9 0.0 0.00 0.00 0.00 10 1024.0
20260508060523 46 90 0.9 0.0 0.00 0.00 0.00 10 1024.0
20260508060415 46 0 0.9 0.0 0.00 0.00 0.00 10 1024.0
20260508060049 46 45 0.9 0.0 0.00 0.00 0.00 10 1023.9
20260508055831 45 0 0.9 0.0 0.00 0.00 0.00 10 1024.0
20260508055722 45 90 1.7 0.0 0.00 0.00 0.00 10 1024.0
20260508055614 46 90 1.7 0.0 0.00 0.00 0.00 10 1023.9
20260508055505 46 45 0.9 0.0 0.00 0.00 0.00 10 1023.9
20260508055139 46 45 0.9 0.0 0.00 0.00 0.00 10 1023.9
20260508055030 46 45 0.9 0.0 0.00 0.00 0.00 10 1023.8
20260508054704 45 0 0.9 0.0 0.00 0.00 0.00 10 1023.8
20260508054447 45 45 0.9 0.0 0.00 0.00 0.00 10 1023.8
20260508054012 45 0 0.9 0.0 0.00 0.00 0.00 10 1023.7
20260508053428 45 45 0.9 0.0 0.00 0.00 0.00 10 1023.6
20260508052954 46 180 0.9 0.0 0.00 0.00 0.00 10 1023.5
20260508052736 45 135 0.9 0.0 0.00 0.00 0.00 10 1023.6
20260508052627 45 90 0.9 0.0 0.00 0.00 0.00 10 1023.6
20260508052519 45 90 0.9 0.0 0.00 0.00 0.00 10 1023.5
20260508052153 45 90 0.9 0.0 0.00 0.00 0.00 10 1023.5
20260508051609 45 90 0.9 0.0 0.00 0.00 0.00 10 1023.5
20260508051500 45 45 0.9 0.0 0.00 0.00 0.00 10 1023.5
20260508051352 45 45 0.9 0.0 0.00 0.00 0.00 10 1023.5
20260508050917 45 45 0.9 0.0 0.00 0.00 0.00 10 1023.4
20260508050808 45 45 0.9 0.0 0.00 0.00 0.00 10 1023.4
20260508050700 45 45 0.9 0.0 0.00 0.00 0.00 10 1023.4
20260508050333 45 45 0.9 0.0 0.00 0.00 0.00 10 1023.4
20260508045859 45 45 0.9 0.0 0.00 0.00 0.00 10 1023.3
20260508045641 45 45 0.9 0.0 0.00 0.00 0.00 10 1023.3
20260508045424 44 45 0.9 0.0 0.00 0.00 0.00 10 1023.3
20260508045315 44 90 0.9 0.0 0.00 0.00 0.00 10 1023.3
20260508045058 44 45 0.9 0.0 0.00 0.00 0.00 10 1023.2
20260508044623 44 90 0.9 0.0 0.00 0.00 0.00 10 1023.2
20260508043713 44 45 0.9 0.0 0.00 0.00 0.00 10 1023.2
20260508043456 44 45 0.9 0.0 0.00 0.00 0.00 10 1023.2
20260508043347 44 45 0.9 0.0 0.00 0.00 0.00 10 1023.2
20260508043238 44 90 0.0 0.0 0.00 0.00 0.00 10 1023.2
20260508042912 44 45 0.9 0.0 0.00 0.00 0.00 10 1023.1
20260508042329 44 45 0.9 0.0 0.00 0.00 0.00 10 1023.1
20260508042111 44 0 0.9 0.0 0.00 0.00 0.00 10 1023.0
20260508042002 44 135 0.9 0.0 0.00 0.00 0.00 10 1023.0
20260508040944 44 90 0.9 0.0 0.00 0.00 0.00 10 1022.9
20260508040035 44 45 0.9 0.0 0.00 0.00 0.00 10 1022.9
20260508035926 44 0 0.9 0.0 0.00 0.00 0.00 10 1022.9
20260508035451 44 45 0.0 0.0 0.00 0.00 0.00 10 1022.8
20260508035016 44 45 0.9 0.0 0.00 0.00 0.00 10 1022.9
20260508034907 44 90 1.7 0.0 0.00 0.00 0.00 10 1022.8
20260508034216 44 45 0.9 0.0 0.00 0.00 0.00 10 1022.8
20260508033416 44 45 0.9 0.0 0.00 0.00 0.00 10 1022.7
20260508031600 44 90 0.0 0.0 0.00 0.00 0.00 10 1022.7
20260508031451 44 90 0.0 0.0 0.00 0.00 0.00 10 1022.6
20260508031234 44 0 0.0 0.0 0.00 0.00 0.00 10 1022.7
20260508030543 44 45 0.9 0.0 0.00 0.00 0.00 10 1022.7
20260508030435 44 135 0.0 0.0 0.00 0.00 0.00 10 1022.7
20260508030326 44 45 0.0 0.0 0.00 0.00 0.00 10 1022.6
20260508030217 44 45 0.0 0.0 0.00 0.00 0.00 10 1022.6
20260508030109 44 45 0.0 0.0 0.00 0.00 0.00 10 1022.6
20260508030001 44 45 0.0 0.0 0.00 0.00 0.00 10 1022.6
20260508025852 44 45 0.0 0.0 0.00 0.00 0.00 10 1022.6
20260508025743 44 45 0.0 0.0 0.00 0.00 0.00 10 1022.7
20260508025526 44 45 0.0 0.0 0.00 0.00 0.00 10 1022.6
20260508025418 44 45 0.0 0.0 0.00 0.00 0.00 10 1022.6
20260508025309 44 45 0.0 0.0 0.00 0.00 0.00 10 1022.6
20260508025201 44 45 0.0 0.0 0.00 0.00 0.00 10 1022.6
20260508025052 44 45 0.0 0.0 0.00 0.00 0.00 10 1022.6
20260508024943 44 45 0.0 0.0 0.00 0.00 0.00 10 1022.6
20260508024618 44 45 0.0 0.0 0.00 0.00 0.00 10 1022.6
20260508024509 44 0 0.0 0.0 0.00 0.00 0.00 10 1022.6
20260508024035 44 90 0.0 0.0 0.00 0.00 0.00 10 1022.5
20260508023927 44 90 0.0 0.0 0.00 0.00 0.00 10 1022.6
20260508023710 44 90 0.9 0.0 0.00 0.00 0.00 10 1022.5
20260508023018 44 45 0.9 0.0 0.00 0.00 0.00 10 1022.5
20260508022110 44 0 0.9 0.0 0.00 0.00 0.00 10 1022.5
20260508022002 44 45 0.0 0.0 0.00 0.00 0.00 10 1022.6
20260508021853 44 45 0.9 0.0 0.00 0.00 0.00 10 1022.5
20260508020836 44 0 0.9 0.0 0.00 0.00 0.00 10 1022.5
20260508020402 44 90 0.9 0.0 0.00 0.00 0.00 10 1022.5
20260508015927 44 90 0.9 0.0 0.00 0.00 0.00 10 1022.5
20260508015819 44 90 0.9 0.0 0.00 0.00 0.00 10 1022.4
20260508015236 44 90 0.9 0.0 0.00 0.00 0.00 10 1022.4
20260508015127 44 90 0.0 0.0 0.00 0.00 0.00 10 1022.4
20260508015019 44 45 0.0 0.0 0.00 0.00 0.00 10 1022.4
20260508013745 44 45 0.0 0.0 0.00 0.00 0.00 10 1022.4
20260508013636 44 45 0.0 0.0 0.00 0.00 0.00 10 1022.3
20260508013527 44 90 0.0 0.0 0.00 0.00 0.00 10 1022.3
20260508012402 44 45 0.9 0.0 0.00 0.00 0.00 10 1022.3
20260508012253 44 45 0.9 0.0 0.00 0.00 0.00 10 1022.4
20260508011928 44 90 0.0 0.0 0.00 0.00 0.00 10 1022.4
20260508010911 44 90 0.9 0.0 0.00 0.00 0.00 10 1022.3
20260508010545 44 90 0.9 0.0 0.00 0.00 0.00 10 1022.3
20260508010437 44 90 0.9 0.0 0.00 0.00 0.00 10 1022.2
20260508010328 44 45 0.9 0.0 0.00 0.00 0.00 10 1022.3
20260508010220 44 90 0.9 0.0 0.00 0.00 0.00 10 1022.3
20260508010111 44 90 0.9 0.0 0.00 0.00 0.00 10 1022.3
20260508005854 44 45 0.9 0.0 0.00 0.00 0.00 10 1022.3
20260508005745 44 90 0.9 0.0 0.00 0.00 0.00 10 1022.4
20260508005637 44 45 0.9 0.0 0.00 0.00 0.00 10 1022.4
20260508005528 44 90 0.9 0.0 0.00 0.00 0.00 10 1022.4
20260508005202 44 45 0.0 0.0 0.00 0.00 0.00 10 1022.4
20260508004837 44 90 0.9 0.0 0.00 0.00 0.00 10 1022.4
20260508004620 44 45 0.9 0.0 0.00 0.00 0.00 10 1022.3
20260508004403 44 90 0.9 0.0 0.00 0.00 0.00 10 1022.3
20260508003820 44 90 0.9 0.0 0.00 0.00 0.00 10 1022.3
20260508003603 44 45 0.9 0.0 0.00 0.00 0.00 10 1022.2
20260508003455 44 90 0.9 0.0 0.00 0.00 0.00 10 1022.2
20260508003129 44 90 0.9 0.0 0.00 0.00 0.00 10 1022.2
20260508003020 44 45 0.9 0.0 0.00 0.00 0.00 10 1022.2
20260508002546 44 315 0.9 0.0 0.00 0.00 0.00 10 1022.1
20260508002329 44 90 0.9 0.0 0.00 0.00 0.00 10 1022.1
20260508002220 44 45 0.9 0.0 0.00 0.00 0.00 10 1022.1
20260508002112 44 45 1.7 0.0 0.00 0.00 0.00 10 1022.2
20260508001638 44 90 0.9 0.0 0.00 0.00 0.00 10 1022.1
20260508001204 44 0 0.9 0.0 0.00 0.00 0.00 10 1022.1
20260508000405 44 45 0.9 0.0 0.00 0.00 0.00 10 1022.0
20260508000146 44 90 0.0 0.0 0.00 0.00 0.00 10 1022.0
20260507235821 44 45 0.9 0.0 0.00 0.00 0.00 10 1022.0
20260507235346 44 0 0.9 0.0 0.00 0.00 0.00 10 1021.8
20260507235129 44 90 0.0 0.0 0.00 0.00 0.00 10 1021.8
20260507234912 44 45 0.0 0.0 0.00 0.00 0.00 10 1021.9
20260507234804 44 90 0.9 0.0 0.00 0.00 0.00 10 1021.9
20260507234330 44 90 0.9 0.0 0.00 0.00 0.00 10 1021.9
20260507234221 44 90 0.9 0.0 0.00 0.00 0.00 10 1021.8
20260507234112 44 90 0.9 0.0 0.00 0.00 0.00 10 1021.8
20260507233855 44 90 0.9 0.0 0.00 0.00 0.00 10 1021.9
20260507233421 44 90 0.9 0.0 0.00 0.00 0.00 10 1021.8
20260507233313 44 90 0.9 0.0 0.00 0.00 0.00 10 1021.8
20260507233056 44 45 0.9 0.0 0.00 0.00 0.00 10 1021.7
20260507232147 44 90 0.9 0.0 0.00 0.00 0.00 10 1021.6
20260507232039 44 90 0.9 0.0 0.00 0.00 0.00 10 1021.6
20260507231713 44 90 0.9 0.0 0.00 0.00 0.00 10 1021.5
20260507231347 44 90 0.9 0.0 0.00 0.00 0.00 10 1021.5
20260507231239 44 45 0.9 0.0 0.00 0.00 0.00 10 1021.5
20260507230913 44 45 0.9 0.0 0.00 0.00 0.00 10 1021.5
20260507230547 44 0 0.9 0.0 0.00 0.00 0.00 10 1021.4
20260507230222 44 45 0.9 0.0 0.00 0.00 0.00 10 1021.3
20260507225856 44 90 0.0 0.0 0.00 0.00 0.00 10 1021.3
20260507225422 44 0 0.0 0.0 0.00 0.00 0.00 10 1021.2
20260507225313 44 0 0.0 0.0 0.00 0.00 0.00 10 1021.2
20260507224839 44 0 0.0 0.0 0.00 0.00 0.00 10 1021.1
20260507223348 44 45 0.9 0.0 0.00 0.00 0.00 10 1021.2
20260507222223 44 45 0.9 0.0 0.00 0.00 0.00 10 1021.0
20260507222114 44 45 0.9 0.0 0.00 0.00 0.00 10 1020.9
20260507221423 44 90 0.0 0.0 0.00 0.00 0.00 10 1020.8
20260507220949 44 45 0.0 0.0 0.00 0.00 0.00 10 1020.8
20260507220732 44 45 0.0 0.0 0.00 0.00 0.00 10 1020.9
20260507220515 44 0 0.0 0.0 0.00 0.00 0.00 10 1020.9
20260507220258 44 0 0.0 0.0 0.00 0.00 0.00 10 1020.9
20260507214807 44 90 0.9 0.0 0.00 0.00 0.00 10 1020.6
20260507214658 44 45 0.9 0.0 0.00 0.00 0.00 10 1020.6
20260507214550 44 45 0.0 0.0 0.00 0.00 0.00 10 1020.5
20260507214115 44 45 0.9 0.0 0.00 0.00 0.00 10 1020.4
20260507214007 44 0 0.9 0.0 0.00 0.00 0.00 10 1020.4
20260507213750 44 45 0.9 0.0 0.00 0.00 0.00 10 1020.3
20260507213641 44 90 0.9 0.0 0.00 0.00 0.00 10 1020.3
20260507213533 45 45 0.9 0.0 0.00 0.00 0.00 10 1020.3
20260507213424 45 0 0.9 0.0 0.00 0.00 0.00 10 1020.3
20260507213316 45 45 0.9 0.0 0.00 0.00 0.00 10 1020.2
20260507213058 44 45 0.9 0.0 0.00 0.00 0.00 10 1020.2
20260507212950 44 45 0.9 0.0 0.00 0.00 0.00 10 1020.2
20260507212258 44 45 0.9 0.0 0.00 0.00 0.00 10 1020.1
20260507211933 44 45 0.0 0.0 0.00 0.00 0.00 10 1020.1
20260507211716 45 45 0.0 0.0 0.00 0.00 0.00 10 1020.0
20260507211607 45 45 0.0 0.0 0.00 0.00 0.00 10 1020.0
20260507211459 45 45 0.0 0.0 0.00 0.00 0.00 10 1020.0
20260507211242 45 45 0.9 0.0 0.00 0.00 0.00 10 1019.9
20260507210916 45 45 0.0 0.0 0.00 0.00 0.00 10 1019.9
20260507210807 45 45 0.0 0.0 0.00 0.00 0.00 10 1019.8
20260507210334 45 90 0.9 0.0 0.00 0.00 0.00 10 1019.8
20260507210008 45 90 0.9 0.0 0.00 0.00 0.00 10 1019.7
20260507205859 45 90 0.9 0.0 0.00 0.00 0.00 10 1019.7
20260507205751 45 90 0.9 0.0 0.00 0.00 0.00 10 1019.7
20260507205425 45 90 0.9 0.0 0.00 0.00 0.00 10 1019.7
20260507205316 45 90 0.9 0.0 0.00 0.00 0.00 10 1019.7
20260507204951 45 45 0.9 0.0 0.00 0.00 0.00 10 1019.7
20260507204842 45 90 0.9 0.0 0.00 0.00 0.00 10 1019.6
20260507204734 45 90 0.9 0.0 0.00 0.00 0.00 10 1019.6
20260507204043 45 0 0.9 0.0 0.00 0.00 0.00 10 1019.5
20260507203717 45 90 0.9 0.0 0.00 0.00 0.00 10 1019.4
20260507203243 45 45 0.9 0.0 0.00 0.00 0.00 10 1019.3
20260507203025 45 45 0.9 0.0 0.00 0.00 0.00 10 1019.2
20260507202808 45 45 0.9 0.0 0.00 0.00 0.00 10 1019.2
20260507202443 45 315 0.0 0.0 0.00 0.00 0.00 10 1019.0
20260507202009 45 90 0.9 0.0 0.00 0.00 0.00 10 1018.9
20260507201643 45 90 0.9 0.0 0.00 0.00 0.00 10 1018.8
20260507201535 45 45 0.9 0.0 0.00 0.00 0.00 10 1018.8
20260507201317 45 90 0.9 0.0 0.00 0.00 0.00 10 1018.7
20260507200735 45 90 0.9 0.0 0.00 0.00 0.00 10 1018.6
20260507200152 45 45 0.9 0.0 0.00 0.00 0.00 10 1018.6
20260507200043 45 90 0.9 0.0 0.00 0.00 0.00 10 1018.5
20260507195826 45 45 1.7 0.0 0.00 0.00 0.00 10 1018.5
20260507195352 45 45 0.9 0.0 0.00 0.00 0.00 10 1018.4
20260507195135 45 90 0.9 0.0 0.00 0.00 0.00 10 1018.4
20260507194809 45 0 0.9 0.0 0.00 0.00 0.00 10 1018.3
20260507194701 45 90 0.9 0.0 0.00 0.00 0.00 10 1018.3
20260507194009 45 45 0.9 0.0 0.00 0.00 0.00 10 1018.1
20260507193427 45 90 0.9 0.0 0.00 0.00 0.00 10 1018.0
20260507192518 45 90 0.0 0.0 0.00 0.00 0.00 10 1017.8
20260507191610 45 0 0.0 0.0 0.00 0.00 0.00 10 1017.6
20260507191501 45 45 0.0 0.0 0.00 0.00 0.00 10 1017.6
20260507190919 45 0 0.9 0.0 0.00 0.00 0.00 10 1017.4
20260507190701 45 0 0.9 0.0 0.00 0.00 0.00 10 1017.4
20260507190553 45 90 0.9 0.0 0.00 0.00 0.00 10 1017.4
20260507190444 45 45 0.9 0.0 0.00 0.00 0.00 10 1017.4
20260507190336 45 45 0.9 0.0 0.00 0.00 0.00 10 1017.3
20260507190227 45 45 0.9 0.0 0.00 0.00 0.00 10 1017.2
20260507190119 45 45 0.9 0.0 0.00 0.00 0.00 10 1017.3
20260507190010 45 45 0.9 0.0 0.00 0.00 0.00 10 1017.2
20260507185902 45 45 0.9 0.0 0.00 0.00 0.00 10 1017.2
20260507185753 45 45 0.9 0.0 0.00 0.00 0.00 10 1017.3
20260507185536 45 45 0.9 0.0 0.00 0.00 0.00 10 1017.2
20260507185210 45 45 0.9 0.0 0.00 0.00 0.00 10 1017.2
20260507185102 45 90 0.9 0.0 0.00 0.00 0.00 10 1017.2
20260507184953 45 45 0.9 0.0 0.00 0.00 0.00 10 1017.2
20260507184736 45 45 0.9 0.0 0.00 0.00 0.00 10 1017.1
20260507184627 45 45 0.9 0.0 0.00 0.00 0.00 10 1017.1
20260507184410 45 0 0.9 0.0 0.00 0.00 0.00 10 1017.0
20260507184302 45 45 0.9 0.0 0.00 0.00 0.00 10 1017.1
20260507184153 45 45 0.9 0.0 0.00 0.00 0.00 10 1017.1
20260507183936 45 0 0.9 0.0 0.00 0.00 0.00 10 1017.0
20260507183611 45 90 0.9 0.0 0.00 0.00 0.00 10 1017.0
20260507183502 45 0 0.9 0.0 0.00 0.00 0.00 10 1017.0
20260507183353 45 45 0.9 0.0 0.00 0.00 0.00 10 1017.0
20260507183027 45 90 0.9 0.0 0.00 0.00 0.00 10 1016.9
20260507182918 45 45 0.9 0.0 0.00 0.00 0.00 10 1016.8
20260507182701 45 45 0.9 0.0 0.00 0.00 0.00 10 1016.8
20260507182552 45 45 0.9 0.0 0.00 0.00 0.00 10 1016.9
20260507182443 45 45 2.6 0.0 0.00 0.00 0.00 10 1016.8
20260507182335 45 45 0.9 0.0 0.00 0.00 0.00 10 1016.8
20260507182117 45 45 0.9 0.0 0.00 0.00 0.00 10 1016.7
20260507181751 45 90 0.9 0.0 0.00 0.00 0.00 10 1016.7
20260507181425 45 0 0.9 0.0 0.00 0.00 0.00 10 1016.6
20260507181059 45 0 0.9 0.0 0.00 0.00 0.00 10 1016.6
20260507180950 45 45 0.0 0.0 0.00 0.00 0.00 10 1016.5
20260507180005 45 0 0.9 0.0 0.00 0.00 0.00 10 1016.1
20260507175131 45 45 0.9 0.0 0.00 0.00 0.00 10 1016.2
20260507174805 45 0 0.9 0.0 0.00 0.00 0.00 10 1016.1
20260507174707 45 0 0.9 0.0 0.00 0.00 0.00 10 1016.1
20260507174555 45 0 0.9 0.0 0.00 0.00 0.00 10 1016.1
20260507174221 45 0 0.9 0.0 0.00 0.00 0.00 10 1016.0
20260507174004 46 0 0.9 0.0 0.00 0.00 0.00 10 1016.0
20260507172837 46 0 0.9 0.0 0.00 0.00 0.00 10 1015.7
20260507172728 46 0 0.9 0.0 0.00 0.00 0.00 10 1015.7
20260507172402 46 45 0.9 0.0 0.01 0.00 0.00 10 1015.6
20260507172144 46 0 0.9 0.0 0.00 0.00 0.00 10 1015.6
20260507171927 46 45 0.0 0.0 0.00 0.00 0.00 10 1015.6
20260507171601 46 45 0.9 0.0 0.00 0.00 0.00 10 1015.5
20260507171344 46 0 0.9 0.0 0.00 0.00 0.00 10 1015.6
20260507171126 46 0 0.9 0.0 0.00 0.00 0.00 10 1015.5
20260507170800 46 45 0.9 0.0 0.00 0.00 0.00 10 1015.5
20260507170325 46 45 0.9 0.0 0.00 0.00 0.00 10 1015.5
20260507165959 46 315 0.9 0.0 0.00 0.00 0.00 10 1015.4
20260507165850 46 0 0.9 0.0 0.00 0.00 0.00 10 1015.4
20260507165741 46 0 0.9 0.0 0.00 0.00 0.00 10 1015.4
20260507165307 46 0 0.9 0.0 0.00 0.00 0.00 10 1015.2
20260507165158 46 0 0.9 0.0 0.00 0.00 0.00 10 1015.2
20260507164940 46 0 0.9 0.0 0.00 0.00 0.00 10 1015.2
20260507164832 46 0 1.7 0.0 0.00 0.00 0.00 10 1015.2
20260507164614 46 0 0.9 0.0 0.00 0.00 0.00 10 1015.2
20260507164139 46 0 0.9 0.0 0.00 0.00 0.00 10 1015.2
20260507164030 46 45 0.0 0.0 0.00 0.00 0.00 10 1015.1
20260507163922 46 0 0.0 0.0 0.00 0.00 0.00 10 1015.1
20260507163704 46 0 0.9 0.0 0.00 0.00 0.00 10 1015.2
20260507163556 46 0 0.9 0.0 0.00 0.00 0.00 10 1015.2
20260507163230 46 0 0.9 0.0 0.00 0.00 0.00 10 1015.1
20260507163121 46 45 0.9 0.0 0.00 0.00 0.00 10 1015.1
20260507162646 46 0 0.9 0.0 0.00 0.00 0.00 10 1015.1
20260507162211 46 0 0.9 0.0 0.00 0.00 0.00 10 1015.0
20260507161954 46 0 0.9 0.0 0.00 0.00 0.00 10 1015.0
20260507161845 46 0 0.9 0.0 0.00 0.00 0.00 10 1015.0
20260507161737 46 0 0.9 0.0 0.00 0.00 0.00 10 1015.0
20260507161519 46 0 0.9 0.0 0.01 0.00 0.00 10 1015.0
20260507161410 46 0 1.7 0.0 0.01 0.00 0.00 10 1015.0
20260507160935 46 0 0.9 0.0 0.01 0.00 0.00 10 1015.0
20260507160826 46 0 0.9 0.0 0.01 0.00 0.00 10 1015.0
20260507160718 46 0 1.7 0.0 0.01 0.00 0.00 10 1015.0
20260507160609 46 0 0.9 0.0 0.01 0.00 0.00 10 1015.0
20260507160136 46 90 0.9 0.0 0.01 0.00 0.00 10 1014.9
20260507155808 46 90 0.9 0.0 0.01 0.00 0.00 10 1014.8
20260507155550 46 0 0.9 0.0 0.01 0.00 0.00 10 1014.8
20260507155442 46 0 0.9 0.0 0.01 0.00 0.00 10 1014.8
20260507155333 46 315 0.9 0.0 0.01 0.00 0.00 10 1014.8
20260507155224 46 315 0.9 0.0 0.01 0.00 0.00 10 1014.8
20260507155007 46 45 0.9 0.0 0.01 0.00 0.00 10 1014.8
20260507154858 46 0 0.9 0.0 0.01 0.00 0.00 10 1014.8
20260507154423 46 315 0.9 0.0 0.01 0.00 0.00 10 1014.7
20260507154314 46 0 0.9 0.0 0.01 0.00 0.00 10 1014.7
20260507154206 46 315 0.9 0.0 0.00 0.00 0.00 10 1014.7
20260507153948 46 0 0.9 0.0 0.00 0.00 0.00 10 1014.7
20260507153839 46 0 0.9 0.0 0.00 0.00 0.00 10 1014.7
20260507153731 46 0 0.9 0.0 0.00 0.00 0.00 10 1014.7
20260507153622 46 315 0.9 0.0 0.00 0.00 0.00 10 1014.7
20260507153256 46 315 0.9 0.0 0.00 0.00 0.00 10 1014.6
20260507153147 46 315 1.7 0.0 0.00 0.00 0.00 10 1014.6
20260507152930 46 315 0.9 0.0 0.00 0.00 0.00 10 1014.7
20260507152712 46 0 0.9 0.0 0.00 0.00 0.00 10 1014.7
20260507152603 46 0 0.9 0.0 0.00 0.00 0.00 10 1014.7
20260507152346 46 0 0.9 0.0 0.00 0.00 0.00 10 1014.7
20260507152237 46 0 1.7 0.0 0.00 0.00 0.00 10 1014.7
20260507152128 46 0 0.9 0.0 0.00 0.00 0.00 10 1014.7
20260507151911 46 0 1.7 0.0 0.00 0.00 0.00 10 1014.7
20260507151802 46 0 0.9 0.0 0.00 0.00 0.00 10 1014.7
20260507151654 46 0 0.9 0.0 0.00 0.00 0.00 10 1014.6
20260507151436 46 0 0.9 0.0 0.00 0.00 0.00 10 1014.6
20260507151327 46 0 0.0 0.0 0.00 0.00 0.00 10 1014.6
20260507151110 46 0 0.9 0.0 0.00 0.00 0.00 10 1014.6
20260507150852 47 0 0.0 0.0 0.00 0.00 0.00 10 1014.6
20260507150635 46 45 0.9 0.0 0.02 0.00 0.00 10 1014.5
20260507150417 46 45 0.9 0.0 0.02 0.00 0.00 10 1014.5
20260507150200 46 0 0.9 0.0 0.02 0.00 0.00 10 1014.6
20260507150051 46 0 0.9 0.0 0.02 0.00 0.00 10 1014.5
20260507145943 46 45 0.9 0.0 0.02 0.00 0.00 10 1014.5
20260507145725 46 45 0.9 0.0 0.01 0.00 0.00 10 1014.5
20260507145359 46 45 0.9 0.0 0.01 0.00 0.00 10 1014.5
20260507145033 46 0 1.7 0.0 0.01 0.00 0.00 10 1014.5
20260507144924 46 0 0.9 0.0 0.01 0.00 0.00 10 1014.5
20260507144815 46 45 0.9 0.0 0.01 0.00 0.00 10 1014.5
20260507144558 46 45 0.9 0.0 0.01 0.00 0.00 10 1014.4
20260507144123 46 0 0.9 0.0 0.01 0.00 0.00 10 1014.4
20260507144014 46 0 0.9 0.0 0.01 0.00 0.00 10 1014.4
20260507143906 46 0 0.9 0.0 0.01 0.00 0.00 10 1014.4
20260507143757 46 0 0.9 0.0 0.01 0.00 0.00 10 1014.4
20260507143648 46 0 0.9 0.0 0.01 0.00 0.00 10 1014.4
20260507143431 46 0 0.9 0.0 0.01 0.00 0.00 10 1014.4
20260507142847 46 45 0.9 0.0 0.01 0.00 0.00 10 1014.4
20260507142306 46 45 0.9 0.0 0.01 0.00 0.00 10 1014.4
20260507142046 46 45 0.9 0.0 0.01 0.00 0.00 10 1014.4
20260507141720 46 0 0.9 0.0 0.01 0.00 0.00 10 1014.4
20260507141354 45 0 0.9 0.0 0.01 0.00 0.00 10 1014.5
20260507141136 45 45 0.9 0.0 0.01 0.00 0.00 10 1014.4
20260507141028 45 0 1.7 0.0 0.01 0.00 0.00 10 1014.4
20260507140919 45 0 0.9 0.0 0.01 0.00 0.00 10 1014.4
20260507140810 45 90 1.7 0.0 0.00 0.00 0.00 10 1014.4
20260507140553 45 0 0.9 0.0 0.00 0.00 0.00 10 1014.4
20260507140444 45 45 0.9 0.0 0.00 0.00 0.00 10 1014.4
20260507140335 45 45 0.9 0.0 0.00 0.00 0.00 10 1014.4
20260507140118 46 45 0.9 0.0 0.00 0.00 0.00 10 1014.4
20260507135901 45 45 0.9 0.0 0.00 0.00 0.00 10 1014.4
20260507135534 45 45 0.9 0.0 0.02 0.00 0.00 10 1014.3
20260507135426 45 45 1.7 0.0 0.02 0.00 0.00 10 1014.3
20260507135317 45 0 0.9 0.0 0.02 0.00 0.00 10 1014.3
20260507134951 45 45 0.9 0.0 0.02 0.00 0.00 10 1014.3
20260507134842 45 0 0.9 0.0 0.02 0.00 0.00 10 1014.3
20260507134734 45 0 0.9 0.0 0.02 0.00 0.00 10 1014.3
20260507134516 45 0 0.9 0.0 0.02 0.00 0.00 10 1014.3
20260507134408 45 45 0.9 0.0 0.02 0.00 0.00 10 1014.3
20260507134259 45 45 0.9 0.0 0.01 0.00 0.00 10 1014.3
20260507134150 45 0 0.9 0.0 0.01 0.00 0.00 10 1014.3
20260507133824 45 45 0.9 0.0 0.01 0.00 0.00 10 1014.2
20260507133715 45 0 1.7 0.0 0.01 0.00 0.00 10 1014.3
20260507133606 45 0 0.9 0.0 0.01 0.00 0.00 10 1014.2
20260507133457 45 45 0.9 0.0 0.01 0.00 0.00 10 1014.2
20260507132805 45 45 0.9 0.0 0.01 0.00 0.00 10 1014.1
20260507132548 45 315 0.9 0.0 0.01 0.00 0.00 10 1014.1
20260507132439 45 45 0.9 0.0 0.01 0.00 0.00 10 1014.1
20260507132330 45 45 1.7 0.0 0.01 0.00 0.00 10 1014.1
20260507132221 45 45 0.9 0.0 0.01 0.00 0.00 10 1014.1
20260507131855 45 45 0.9 0.0 0.01 0.00 0.00 10 1014.0
20260507131747 45 45 0.9 0.0 0.01 0.00 0.00 10 1014.0
20260507131639 45 45 0.9 0.0 0.00 0.00 0.00 10 1014.0
20260507131529 45 45 1.7 0.0 0.00 0.00 0.00 10 1014.0
20260507131312 45 45 0.9 0.0 0.00 0.00 0.00 10 1014.0
20260507131203 45 45 0.9 0.0 0.00 0.00 0.00 10 1014.0
20260507130946 45 45 0.9 0.0 0.00 0.00 0.00 10 1013.9
20260507130837 45 45 0.9 0.0 0.00 0.00 0.00 10 1013.9
20260507130728 45 0 0.9 0.0 0.00 0.00 0.00 10 1013.9
20260507130620 45 0 0.9 0.0 0.00 0.00 0.00 10 1013.9
20260507130511 45 45 0.9 0.0 0.00 0.00 0.00 10 1013.8
20260507130402 45 90 0.9 0.0 0.00 0.00 0.00 10 1013.8
20260507130253 45 45 0.9 0.0 0.00 0.00 0.00 10 1013.9
20260507130145 45 45 0.9 0.0 0.00 0.00 0.00 10 1013.9
20260507130036 45 45 1.7 0.0 0.00 0.00 0.00 10 1013.9
20260507125928 45 0 0.9 0.0 0.00 0.00 0.00 10 1013.9
20260507125819 45 45 1.7 0.0 0.00 0.00 0.00 10 1013.9
20260507125710 45 45 0.9 0.0 0.00 0.00 0.00 10 1013.9
20260507125601 45 45 0.9 0.0 0.00 0.00 0.00 10 1013.8
20260507125453 45 45 1.7 0.0 0.00 0.00 0.00 10 1013.8
20260507125344 45 45 0.9 0.0 0.00 0.00 0.00 10 1013.8
20260507125235 45 45 0.9 0.0 0.00 0.00 0.00 10 1013.8
20260507125018 45 315 0.9 0.0 0.00 0.00 0.00 10 1013.7
20260507124651 45 45 0.9 0.0 0.02 0.00 0.00 10 1013.7
20260507124542 45 0 0.9 0.0 0.02 0.00 0.00 10 1013.7
20260507124434 45 45 1.7 0.0 0.02 0.00 0.00 10 1013.7
20260507124325 45 0 1.7 0.0 0.02 0.00 0.00 10 1013.8
20260507124216 45 45 0.9 0.0 0.02 0.00 0.00 10 1013.7
20260507124107 45 0 0.9 0.0 0.02 0.00 0.00 10 1013.7
20260507123959 45 45 1.7 0.0 0.02 0.00 0.00 10 1013.6
20260507123850 45 45 0.9 0.0 0.02 0.00 0.00 10 1013.6
20260507123741 45 0 1.7 0.0 0.02 0.00 0.00 10 1013.7
20260507123633 45 0 2.6 0.0 0.02 0.00 0.00 10 1013.7
20260507123524 45 45 0.9 0.0 0.02 0.00 0.00 10 1013.6
20260507123415 45 0 0.9 0.0 0.01 0.00 0.00 10 1013.6
20260507123307 45 45 0.9 0.0 0.01 0.00 0.00 10
20260507123158 45 0 0.9 0.0 0.01 0.00 0.00 10 1013.5
20260507123049 45 0 0.9 0.0 0.01 0.00 0.00 10 1013.5
20260507122940 45 45 0.9 0.0 0.01 0.00 0.00 10 1013.5
20260507122834 45 0 0.9 0.0 0.01 0.00 0.00 10 1013.5
20260507122723 45 0 0.9 0.0 0.01 0.00 0.00 10 1013.5
20260507122614 45 45 0.9 0.0 0.01 0.00 0.00 10 1013.5
20260507122505 45 45 1.7 0.0 0.01 0.00 0.00 10 1013.4
20260507122357 45 45 0.9 0.0 0.01 0.00 0.00 10 1013.4
20260507122248 45 45 0.9 0.0 0.01 0.00 0.00 10 1013.4
20260507122030 45 45 0.9 0.0 0.01 0.00 0.00 10 1013.3
20260507121813 45 90 0.9 0.0 0.01 0.00 0.00 10 1013.3
20260507121704 45 45 2.6 0.0 0.01 0.00 0.00 10 1013.3
20260507121447 45 0 1.7 0.0 0.01 0.00 0.00 10 1013.2
20260507121229 45 90 0.9 0.0 0.01 0.00 0.00 10 1013.3
20260507121012 45 90 0.9 0.0 0.01 0.00 0.00 10 1013.2
20260507120754 45 315 0.9 0.0 0.01 0.00 0.00 10 1013.2
20260507120646 45 0 0.9 0.0 0.01 0.00 0.00 10 1013.2
20260507120537 45 0 0.9 0.0 0.01 0.00 0.00 10 1013.2
20260507120428 45 90 1.7 0.0 0.01 0.00 0.00 10 1013.2
20260507120320 45 45 1.7 0.0 0.01 0.00 0.00 10 1013.2
20260507120211 45 45 0.9 0.0 0.01 0.00 0.00 10 1013.2
20260507115953 45 90 0.9 0.0 0.00 0.00 0.00 10 1013.1
20260507115845 45 45 1.7 0.0 0.00 0.00 0.00 10 1013.2
20260507115736 45 0 0.9 0.0 0.00 0.00 0.00 10 1013.1
20260507115627 45 45 0.9 0.0 0.00 0.00 0.00 10 1013.2
20260507115519 45 0 1.7 0.0 0.00 0.00 0.00 10 1013.1
20260507115410 45 0 1.7 0.0 0.00 0.00 0.00 10 1013.1
20260507115301 45 45 0.9 0.0 0.00 0.00 0.00 10 1013.1
20260507115152 45 45 0.9 0.0 0.00 0.00 0.00 10 1013.0
20260507115044 45 0 0.9 0.0 0.00 0.00 0.00 10 1013.0
20260507114826 45 45 0.9 0.0 0.00 0.00 0.00 10 1012.9
20260507114718 45 90 0.9 0.0 0.00 0.00 0.00 10 1012.9
20260507114609 45 0 0.9 0.0 0.00 0.00 0.00 10 1012.8
20260507114351 45 90 1.7 0.0 0.00 0.00 0.00 10 1012.7
20260507114243 45 45 0.9 0.0 0.00 0.00 0.00 10 1012.6
20260507114134 45 0 1.7 0.0 0.00 0.00 0.00 10 1012.5
20260507114025 45 0 1.7 0.0 0.00 0.00 0.00 10 1013.2
20260507113808 45 45 0.9 0.0 0.00 0.00 0.00 10 1013.2
20260507113550 45 0 1.7 0.0 0.02 0.00 0.00 10 1013.1
20260507113442 45 0 2.6 0.0 0.02 0.00 0.00 10 1013.1
20260507113333 45 45 1.7 0.0 0.02 0.00 0.00 10 1013.1
20260507113224 45 45 1.7 0.0 0.02 0.00 0.00 10 1013.1
20260507113115 45 45 0.9 0.0 0.02 0.00 0.00 10 1013.1
20260507113006 45 45 0.9 0.0 0.02 0.00 0.00 10 1013.1
20260507112858 45 45 0.9 0.0 0.02 0.00 0.00 10 1013.1
20260507112749 45 45 1.7 0.0 0.02 0.00 0.00 10 1013.1
20260507112640 45 45 0.9 0.0 0.02 0.00 0.00 10 1013.1
20260507112531 45 0 1.7 0.0 0.02 0.00 0.00 10 1013.2
20260507112423 45 45 1.7 0.0 0.02 0.00 0.00 10 1013.2
20260507112314 45 45 2.6 0.0 0.02 0.00 0.00 10 1013.2
20260507112205 45 45 0.9 0.0 0.02 0.00 0.00 10 1013.2
20260507111948 45 45 2.6 0.0 0.02 0.00 0.00 10 1013.2
20260507111839 45 45 2.6 0.0 0.02 0.00 0.00 10 1013.1
20260507111730 45 45 1.7 0.0 0.02 0.00 0.00 10 1013.2
20260507111622 45 90 1.7 0.0 0.02 0.00 0.00 10 1013.1
20260507111513 45 45 0.9 0.0 0.02 0.00 0.00 10 1013.1
20260507111404 45 45 0.9 0.0 0.02 0.00 0.00 10 1013.1
20260507111255 45 0 0.9 0.0 0.02 0.00 0.00 10 1013.1
20260507111147 45 45 0.9 0.0 0.02 0.00 0.00 10 1013.1
20260507111038 45 0 0.9 0.0 0.02 0.00 0.00 10 1013.1
20260507110821 45 45 1.7 0.0 0.01 0.00 0.00 10 1013.0
20260507110712 45 45 0.9 0.0 0.01 0.00 0.00 10 1013.0
20260507110454 45 135 2.6 0.0 0.01 0.00 0.00 10 1013.0
20260507110346 45 45 1.7 0.0 0.01 0.00 0.00 10 1013.0
20260507110237 45 45 0.9 0.0 0.01 0.00 0.00 10 1012.9
20260507110128 45 45 0.9 0.0 0.01 0.00 0.00 10 1013.0
20260507110019 45 45 1.7 0.0 0.01 0.00 0.00 10 1013.0
20260507105911 45 45 0.9 0.0 0.01 0.00 0.00 10 1012.9
20260507105802 45 45 1.7 0.0 0.01 0.00 0.00 10 1012.9
20260507105653 45 45 1.7 0.0 0.01 0.00 0.00 10 1012.9
20260507105544 45 45 2.6 0.0 0.01 0.00 0.00 10 1012.9
20260507105436 45 45 2.6 0.0 0.01 0.00 0.00 10 1012.9
20260507105327 45 0 1.7 0.0 0.00 0.00 0.00 10 1012.9
20260507105218 45 45 1.7 0.0 0.00 0.00 0.00 10 1012.9
20260507105109 45 45 2.6 0.0 0.00 0.00 0.00 10 1012.8
20260507105001 45 45 0.9 0.0 0.00 0.00 0.00 10 1012.9
20260507104852 45 0 1.7 0.0 0.00 0.00 0.00 10 1012.8
20260507104743 45 45 0.9 0.0 0.00 0.00 0.00 10 1012.9
20260507104635 45 45 0.9 0.0 0.00 0.00 0.00 10 1012.8
20260507104526 45 45 1.7 0.0 0.00 0.00 0.00 10 1012.8
20260507104418 45 0 0.9 0.0 0.00 0.00 0.00 10 1012.8
20260507104308 45 0 1.7 0.0 0.00 0.00 0.00 10 1012.8
20260507104051 45 45 0.9 0.0 0.00 0.00 0.00 10 1012.8
20260507103942 45 45 1.7 0.0 0.00 0.00 0.00 10 1012.8
20260507103724 45 45 0.9 0.0 0.00 0.00 0.00 10 1012.7
20260507103616 45 45 1.7 0.0 0.00 0.00 0.00 10 1012.7
20260507103359 45 0 1.7 0.0 0.00 0.00 0.00 10 1012.7
20260507103250 45 45 0.9 0.0 0.00 0.00 0.00 10 1012.7
20260507103141 45 90 0.9 0.0 0.00 0.00 0.00 10 1012.6
20260507103032 45 45 1.7 0.0 0.00 0.00 0.00 10 1012.6